Weather History for Boonville, MO

Change the Weather History Date:

Tuesday, January 15, 2013

  Actual Average Record
Temperature  
Mean Temperature 20 °F -  
Max Temperature 30 °F 35 °F 70 °F (1952)
Min Temperature 9 °F 17 °F -9 °F (1972)
Degree Days  
Heating Degree Days 46    
Moisture  
Dew Point 12 °F    
Average Humidity 72    
Maximum Humidity 95    
Minimum Humidity 46    
Precipitation  
Precipitation 0.00 in - - ()
Sea Level Pressure  
Sea Level Pressure 30.31 in    
Wind  
Wind Speed 1 mph (NNE)    
Max Wind Speed 7 mph    
Max Gust Speed -    
Visibility 10 miles    
Events      
Averages and records for this station are not official NWS values.
T = Trace of Precipitation, MM = Missing Value Source: NWS Daily Summary

Daily Weather History Graph

Daily Weather History Graph

Search for Another Location

Airport:

Trip Planner

Search our weather history database for the weather conditions in past years. The results will help you decide how hot, cold, wet, or windy it might be!

Date:

Astronomy

Jan. 15, 2013 Rise Set
Actual Time 7:27 AM CST 5:13 PM CST
Civil Twilight 6:58 AM CST 5:42 PM CST
Nautical Twilight 6:25 AM CST 6:15 PM CST
Astronomical Twilight 5:53 AM CST 6:47 PM CST
Moon 9:36 AM CST (1/15) 10:00 PM CST (1/15)
Length of Visible Light 10h 43m
Length of Day
9h 45m
Waxing Crescent, 19% of the Moon is Illuminated
Jan 15
Waxing Crescent
Jan 18
First Quarter
Jan 26
Full
Feb 3
Last Quarter
Feb 10
New

Hourly Weather History & Observations

Time (CST) Temp. Windchill Dew Point Humidity Pressure Visibility Wind Dir Wind Speed Gust Speed Precip Events Conditions
12:15 AM 16.0 °F - 10.4 °F 79% 30.41 in 10.0 mi Calm Calm - N/A   Clear
12:35 AM 14.7 °F - 10.2 °F 82% 30.40 in 10.0 mi Calm Calm - N/A   Clear
12:55 AM 14.0 °F - 10.6 °F 86% 30.40 in 10.0 mi Calm Calm - N/A   Clear
1:15 AM 13.6 °F - 10.6 °F 88% 30.40 in 10.0 mi Calm Calm - N/A   Clear
1:35 AM 14.0 °F - 10.9 °F 88% 30.39 in 10.0 mi Calm Calm - N/A   Clear
1:55 AM 14.7 °F - 10.6 °F 84% 30.39 in 10.0 mi Calm Calm - N/A   Clear
2:15 AM 13.1 °F - 9.7 °F 86% 30.39 in 10.0 mi Calm Calm - N/A   Clear
2:35 AM 13.1 °F - 10.8 °F 90% 30.39 in 10.0 mi Calm Calm - N/A   Clear
2:55 AM 13.3 °F - 12.0 °F 95% 30.40 in 10.0 mi Calm Calm - N/A   Clear
3:15 AM 13.3 °F - 11.8 °F 94% 30.38 in 10.0 mi Calm Calm - N/A   Clear
3:35 AM 12.6 °F - 10.2 °F 90% 30.36 in 10.0 mi Calm Calm - N/A   Clear
3:55 AM 12.4 °F - 10.0 °F 90% 30.36 in 10.0 mi Calm Calm - N/A   Clear
4:15 AM 11.3 °F - 8.4 °F 88% 30.36 in 10.0 mi Calm Calm - N/A   Clear
4:55 AM 11.3 °F - 8.4 °F 88% 30.36 in 10.0 mi Calm Calm - N/A   Clear
5:15 AM 10.8 °F - 7.9 °F 88% 30.36 in 10.0 mi Calm Calm - N/A   Clear
5:35 AM 10.8 °F - 8.4 °F 90% 30.36 in 10.0 mi Calm Calm - N/A   Clear
5:55 AM 11.1 °F 4.9 °F 8.8 °F 90% 30.36 in 10.0 mi East 3.5 mph - N/A   Clear
6:15 AM 10.9 °F 4.7 °F 8.6 °F 90% 30.37 in 10.0 mi SSE 3.5 mph - N/A   Clear
6:35 AM 9.7 °F - 7.2 °F 90% 30.38 in 10.0 mi Calm Calm - N/A   Clear
6:55 AM 10.0 °F - 7.5 °F 90% 30.38 in 10.0 mi Calm Calm - N/A   Clear
7:15 AM 10.6 °F - 8.1 °F 90% 30.38 in 10.0 mi Calm Calm - N/A   Clear
7:35 AM 11.3 °F - 8.6 °F 89% 30.38 in 10.0 mi Calm Calm - N/A   Clear
7:55 AM 11.8 °F - 9.3 °F 90% 30.39 in 10.0 mi Calm Calm - N/A   Clear
8:15 AM 12.6 °F 3.4 °F 10.6 °F 92% 30.38 in 10.0 mi North 5.8 mph - N/A   Clear
8:35 AM 14.4 °F 6.9 °F 12.9 °F 94% 30.37 in 10.0 mi North 4.6 mph - N/A   Clear
8:55 AM 16.0 °F 10.4 °F 12.6 °F 86% 30.36 in 10.0 mi NNE 3.5 mph - N/A   Clear
9:15 AM 18.1 °F 12.9 °F 13.3 °F 81% 30.36 in 10.0 mi NNE 3.5 mph - N/A   Clear
9:35 AM 19.2 °F - 13.8 °F 80% 30.36 in 10.0 mi Calm Calm - N/A   Clear
9:55 AM 20.5 °F - 14.9 °F 79% 30.37 in 10.0 mi Calm Calm - N/A   Clear
10:15 AM 21.0 °F - 15.1 °F 78% 30.37 in 10.0 mi Calm Calm - N/A   Clear
10:35 AM 21.6 °F - 14.9 °F 76% 30.38 in 10.0 mi Calm Calm - N/A   Scattered Clouds
10:55 AM 22.6 °F 16.5 °F 16.2 °F 76% 30.38 in 10.0 mi South 4.6 mph - N/A   Scattered Clouds
11:15 AM 24.4 °F 16.5 °F 16.3 °F 71% 30.37 in 10.0 mi SE 6.9 mph - N/A   Clear
11:35 AM 25.5 °F 19.9 °F 15.8 °F 67% 30.36 in 10.0 mi SE 4.6 mph - N/A   Clear
11:55 AM 25.2 °F - 14.5 °F 64% 30.34 in 10.0 mi Calm Calm - N/A   Clear
12:15 PM 25.5 °F - 14.2 °F 62% 30.32 in 10.0 mi Calm Calm - N/A   Clear
12:35 PM 25.7 °F - 13.6 °F 60% 30.30 in 10.0 mi Calm Calm - N/A   Clear
12:55 PM 26.2 °F - 13.1 °F 58% 30.30 in 10.0 mi Calm Calm - N/A   Clear
1:35 PM 28.6 °F 24.8 °F 14.4 °F 55% 30.29 in 10.0 mi NNW 3.5 mph - N/A   Clear
1:55 PM 28.6 °F - 13.5 °F 53% 30.28 in 10.0 mi Calm Calm - N/A   Scattered Clouds
2:15 PM 29.1 °F 24.1 °F 13.1 °F 51% 30.28 in 10.0 mi North 4.6 mph - N/A   Scattered Clouds
2:35 PM 29.5 °F 24.5 °F 13.8 °F 52% 30.28 in 10.0 mi North 4.6 mph - N/A   Scattered Clouds
2:55 PM 29.7 °F 23.7 °F 12.6 °F 49% 30.28 in 10.0 mi NNE 5.8 mph - N/A   Scattered Clouds
3:15 PM 30.0 °F 25.2 °F 12.6 °F 48% 30.27 in 10.0 mi North 4.6 mph - N/A   Scattered Clouds
3:35 PM 30.2 °F 25.4 °F 12.0 °F 47% 30.25 in 10.0 mi North 4.6 mph - N/A   Mostly Cloudy
3:55 PM 30.2 °F 25.4 °F 12.0 °F 47% 30.26 in 10.0 mi NNE 4.6 mph - N/A   Mostly Cloudy
4:15 PM 30.2 °F - 11.7 °F 46% 30.26 in 10.0 mi Calm Calm - N/A   Mostly Cloudy
4:35 PM 29.5 °F - 12.9 °F 50% 30.25 in 10.0 mi Calm Calm - N/A   Overcast
4:55 PM 29.5 °F - 13.1 °F 51% 30.24 in 10.0 mi Calm Calm - N/A   Overcast
5:15 PM 29.1 °F - 13.6 °F 52% 30.24 in 10.0 mi Calm Calm - N/A   Overcast
5:35 PM 28.9 °F - 12.9 °F 51% 30.24 in 10.0 mi Calm Calm - N/A   Overcast
5:55 PM 28.6 °F - 12.4 °F 51% 30.24 in 10.0 mi Calm Calm - N/A   Overcast
6:15 PM 28.2 °F - 12.7 °F 52% 30.24 in 10.0 mi Calm Calm - N/A   Overcast
6:35 PM 27.7 °F - 12.6 °F 53% 30.23 in 10.0 mi Calm Calm - N/A   Overcast
6:55 PM 27.0 °F 23.0 °F 12.6 °F 55% 30.23 in 10.0 mi NE 3.5 mph - N/A   Mostly Cloudy
7:15 PM 26.4 °F - 12.6 °F 56% 30.23 in 10.0 mi Calm Calm - N/A   Scattered Clouds
7:35 PM 25.7 °F - 12.7 °F 58% 30.23 in 10.0 mi Calm Calm - N/A   Overcast
7:55 PM 25.0 °F - 13.1 °F 61% 30.22 in 10.0 mi Calm Calm - N/A   Overcast
8:15 PM 24.6 °F - 13.1 °F 62% 30.22 in 10.0 mi Calm Calm - N/A   Overcast
8:35 PM 24.6 °F - 12.6 °F 60% 30.22 in 10.0 mi Calm Calm - N/A   Mostly Cloudy
8:55 PM 23.7 °F - 13.1 °F 64% 30.21 in 10.0 mi Calm Calm - N/A   Mostly Cloudy
9:15 PM 21.7 °F - 14.2 °F 73% 30.20 in 10.0 mi Calm Calm - N/A   Scattered Clouds
9:35 PM 22.3 °F - 12.9 °F 67% 30.19 in 10.0 mi Calm Calm - N/A   Clear
9:55 PM 21.7 °F - 12.7 °F 68% 30.19 in 10.0 mi Calm Calm - N/A   Clear
10:15 PM 21.0 °F - 12.7 °F 70% 30.18 in 10.0 mi Calm Calm - N/A   Clear
10:35 PM 20.7 °F - 13.1 °F 73% 30.17 in 10.0 mi Calm Calm - N/A   Clear
10:55 PM 19.4 °F - 12.7 °F 75% 30.17 in 10.0 mi Calm Calm - N/A   Clear
11:15 PM 18.9 °F - 13.5 °F 79% 30.17 in 10.0 mi Calm Calm - N/A   Clear
11:35 PM 17.6 °F - 13.1 °F 83% 30.17 in 10.0 mi Calm Calm - N/A   Clear